[[{"header":{"parameterUnit":"m.s-1","parameterCategory":1,"la1":30.2992,"la2":30.254,"lo1":-89.0895,"lo2":-89.0443,"dy":0.0025,"dx":0.0025,"nx":19,"ny":19,"refTime":"2026-03-27T21:00:00:Z","depth":0,"parameterNumber":2,"parameterNumberName":"U-component_of_WINDS"},"data":[0,0,0,-1.7469,-1.747,-1.7504,-1.7505,-1.7567,-1.7567,0,0,0,0,0,0,0,0,0,0,0,-1.7469,-1.7469,-1.7469,-1.747,-1.7504,-1.7505,-1.7567,-1.7567,0,0,0,0,0,0,0,0,0,0,0,-1.7468,-1.7469,-1.747,-1.747,-1.7504,-1.7505,-1.7566,-1.7534,0,0,0,0,0,0,0,0,0,0,-1.7497,-1.7507,-1.7469,-1.747,-1.747,-1.7504,-1.7505,-1.7532,-1.7536,-1.7558,0,-1.758,0,-1.7575,-1.7573,-1.7573,0,0,0,-1.7463,-1.7504,-1.7504,-1.747,-1.7471,-1.7504,-1.7487,-1.7534,-1.7539,-1.7564,-1.7581,-1.7582,-1.7576,-1.7573,-1.7573,-1.7723,-1.7724,0,0,-1.7461,-1.7481,-1.7501,-1.7507,-1.7502,-1.7486,-1.7488,-1.7537,-1.7557,-1.7581,-1.7584,-1.7577,-1.7574,-1.7574,-1.7722,-1.7723,0,0,0,-1.746,-1.748,-1.7478,-1.7505,-1.751,-1.7487,-1.749,-1.7555,-1.7553,-1.7584,-1.7577,-1.7574,-1.7575,-1.772,-1.7722,-1.7793,0,0,0,-1.7459,-1.7479,-1.7478,-1.749,-1.7509,-1.7533,-1.7507,-1.7549,-1.7554,-1.7577,-1.7574,-1.7576,-1.7719,-1.7721,-1.7788,-1.7823,0,0,0,-1.7463,-1.7479,-1.7488,-1.7491,-1.7506,-1.7531,-1.7532,-1.755,-1.755,-1.7573,-1.7576,-1.7719,-1.7721,-1.7784,-1.7817,-1.7869,0,0,0,-1.7474,-1.7551,-1.7489,-1.7572,-1.7506,-1.7574,-1.7531,-1.7581,-1.7608,-1.7574,-1.7719,-1.7722,-1.7783,-1.7813,-1.7865,-1.7917,-1.7941,0,0,-1.7582,-1.7564,-1.7612,-1.7558,-1.7641,-1.7567,-1.7661,-1.7668,-1.7653,-1.77,-1.7704,-1.779,-1.7816,-1.7868,-1.8061,-1.808,0,0,0,-1.7653,-1.7687,-1.7705,-1.7731,-1.7737,-1.7746,-1.7736,-1.7738,-1.7778,-1.7681,-1.7821,-1.7836,-1.7866,-1.789,-1.7906,-1.7931,-1.7734,-1.7733,-1.7733,-1.7836,-1.7811,-1.7887,-1.7866,-1.7892,-1.788,-1.7899,-1.7901,-1.7868,-1.7902,-1.7917,-1.8037,-1.8066,-1.8078,-1.8104,-1.7941,-1.7941,-1.7941,-1.7941,-1.7994,-1.8039,-1.7992,-1.805,-1.8022,-1.8071,-1.8062,-1.8037,-1.8079,-1.8024,-1.8049,-1.7993,-1.8099,-1.812,-1.7946,-1.7946,-1.7945,-1.7944,-1.7944,-1.8113,-1.813,-1.813,-1.8165,-1.8195,-1.817,-1.8211,-1.8185,-1.816,-1.8185,-1.8198,-1.8196,-1.8193,-1.8192,-1.8193,-1.8193,-1.8193,-1.8194,-1.8194,-1.8237,-1.8235,-1.8273,-1.8284,-1.8297,-1.8311,-1.8298,-1.831,-1.8318,-1.8295,-1.8295,-1.826,-1.8113,-1.8078,-1.82,-1.8199,-1.8198,-1.8198,-1.8197,-1.841,-1.8366,-1.8425,-1.8438,-1.8448,-1.848,-1.8444,-1.8471,-1.8477,-1.8499,-1.8457,-1.8352,-1.8333,-1.832,-1.8291,-1.8462,-1.8462,-1.8462,-1.8462,-1.8512,-1.8498,-1.8552,-1.8574,-1.8592,-1.8565,-1.8633,-1.8624,-1.8607,-1.861,-1.858,-1.8538,-1.8526,-1.8514,-1.8497,-1.847,-1.8682,-1.8682,-1.8682,-1.8617,-1.8604,-1.8667,-1.8648,-1.8654,-1.866,-1.8723,-1.8751,-1.8723,-1.8691,-1.8611,-1.8602,-1.8534,-1.8512,-1.8481,-1.8455,-1.8404,0,0]},{"header":{"parameterUnit":"m.s-1","parameterCategory":1,"la1":30.2992,"la2":30.254,"lo1":-89.0895,"lo2":-89.0443,"dy":0.0025,"dx":0.0025,"nx":19,"ny":19,"refTime":"2026-03-27T21:00:00:Z","depth":0,"parameterNumber":3,"parameterNumberName":"V-component_of_WINDS"},"data":[0,0,0,-8.6772,-8.6775,-8.6898,-8.6898,-8.7079,-8.708,0,0,0,0,0,0,0,0,0,0,0,-8.6752,-8.6754,-8.6771,-8.6775,-8.6898,-8.6898,-8.7078,-8.708,0,0,0,0,0,0,0,0,0,0,0,-8.6751,-8.6753,-8.6756,-8.6775,-8.6898,-8.6898,-8.7078,-8.6976,0,0,0,0,0,0,0,0,0,0,-8.6852,-8.6851,-8.6753,-8.6756,-8.6776,-8.6898,-8.6898,-8.6971,-8.6982,-8.7034,0,-8.7087,0,-8.7087,-8.7094,-8.7095,0,0,0,-8.6761,-8.6842,-8.686,-8.6756,-8.6778,-8.6898,-8.6839,-8.6977,-8.699,-8.7049,-8.7089,-8.7095,-8.709,-8.7096,-8.7097,-8.7446,-8.7448,0,0,-8.6754,-8.6782,-8.6851,-8.687,-8.6856,-8.6835,-8.6843,-8.6984,-8.7028,-8.7089,-8.7099,-8.7093,-8.7097,-8.7098,-8.7444,-8.7447,0,0,0,-8.6744,-8.6778,-8.6792,-8.6863,-8.6884,-8.6839,-8.6848,-8.7022,-8.7024,-8.71,-8.7095,-8.7098,-8.7101,-8.7442,-8.7445,-8.7587,0,0,0,-8.6739,-8.6772,-8.679,-8.6809,-8.6882,-8.6955,-8.6882,-8.7014,-8.703,-8.7094,-8.7098,-8.7103,-8.7439,-8.7443,-8.7578,-8.7649,0,0,0,-8.6738,-8.6772,-8.6796,-8.681,-8.6864,-8.6952,-8.6962,-8.7017,-8.7027,-8.7095,-8.7103,-8.7437,-8.7443,-8.7569,-8.7635,-8.775,0,0,0,-8.6744,-8.6918,-8.6799,-8.699,-8.6864,-8.704,-8.6961,-8.709,-8.7165,-8.7099,-8.7439,-8.7445,-8.7567,-8.7627,-8.7742,-8.7853,-8.7902,0,0,-8.6979,-8.6947,-8.7058,-8.6955,-8.716,-8.7019,-8.7243,-8.7284,-8.7262,-8.7385,-8.7393,-8.7581,-8.7634,-8.7748,-8.8166,-8.8206,0,0,0,-8.7141,-8.7222,-8.727,-8.7345,-8.7382,-8.742,-8.7423,-8.7438,-8.7542,-8.7333,-8.7652,-8.7683,-8.7749,-8.7801,-8.7834,-8.7889,-8.747,-8.7469,-8.7469,-8.7513,-8.748,-8.7661,-8.7644,-8.7717,-8.772,-8.7776,-8.7796,-8.7737,-8.7814,-8.785,-8.8108,-8.817,-8.8195,-8.8253,-8.7906,-8.7906,-8.7907,-8.7907,-8.7855,-8.7964,-8.7886,-8.8034,-8.7997,-8.8119,-8.8128,-8.8084,-8.8191,-8.8078,-8.8134,-8.8014,-8.824,-8.8288,-8.7917,-8.7916,-8.7914,-8.7913,-8.7913,-8.8096,-8.8142,-8.816,-8.8266,-8.8351,-8.8324,-8.8433,-8.8393,-8.8357,-8.8412,-8.8447,-8.8445,-8.8438,-8.8432,-8.8433,-8.8434,-8.8434,-8.8435,-8.8436,-8.8339,-8.8354,-8.8452,-8.8508,-8.8552,-8.8604,-8.8609,-8.865,-8.8685,-8.8647,-8.8647,-8.8582,-8.8268,-8.8191,-8.8449,-8.8447,-8.8445,-8.8444,-8.8443,-8.8699,-8.8612,-8.8763,-8.8808,-8.887,-8.8957,-8.8906,-8.8993,-8.902,-8.9075,-8.8998,-8.8772,-8.8736,-8.8709,-8.8644,-8.9005,-8.9005,-8.9005,-8.9005,-8.8903,-8.8881,-8.9028,-8.9101,-8.9168,-8.9139,-8.9308,-8.9314,-8.9305,-8.932,-8.9262,-8.9172,-8.9147,-8.9125,-8.909,-8.9029,-8.9479,-8.948,-8.948,-8.9122,-8.9106,-8.926,-8.9254,-8.93,-8.934,-8.9499,-8.9584,-8.9555,-8.9498,-8.9331,-8.9311,-8.9166,-8.9121,-8.9061,-8.9006,-8.8893,0,0]}]]